Regional Weather Roundup
Issued by NWS State College, PA

Home | Current Version | Previous Version | Text Only | Print | Product List | Glossary On
Versions: 1 2 3 4 5 6 7 8 9 10 11 12 13 14 15 16 17 18 19 20 21 22 23 24 25 26 27 28 29 30 31 32 33 34 35 36 37 38 39 40 41 42 43 44 45 46 47 48 49 50
000
ASUS41 KCTP 242210
RWRCTP

REGIONAL WEATHER ROUNDUP
NATIONAL WEATHER SERVICE STATE COLLEGE PA
600 PM EDT TUE APR 24 2018

Note: "fair" indicates few or no clouds below 12,000 feet with no
significant weather and/or obstructions to visibility.

* = STATION THAT DOES NOT REPORT PRECIPITATION /E.G. RAIN...SNOW...ETC/
    THUNDER OR FOG.

PAZ002>004-007>009-013>016-020>023-029>032-242300-
WESTERN PENNSYLVANIA

CITY           SKY/WX    TMP DP  RH WIND       PRES   REMARKS
ERIE           LGT RAIN  55  48  77 SE7G17    30.04F
MEADVILLE      LGT RAIN  51  49  92 VRB6      30.04S
FRANKLIN*      LGT RAIN  49  47  93 E13       30.05F
NEW CASTLE     LGT RAIN  52  52 100 E7        30.03S
BEAVER COUNTY  DRIZZLE   50  48  93 E7        30.01S
BUTLER*        LGT RAIN  51  49  92 E10       30.03S
PITTSBURGH INT LGT RAIN  52  51  97 E7        29.99F
PITTSBURGH     LGT RAIN  51  49  92 E10       29.99F
INDIANA*       CLOUDY    52  50  93 SE12      30.08F FOG
LATROBE        LGT RAIN  54  48  82 NE6       30.01S
WASHINGTON CO* LGT RAIN  52  49  89 E8        30.02S
$$

PAZ004>006-010>012-017>019-024>028-033>037-041-042-045-046-049>053-242300-
CENTRAL PENNSYLVANIA

CITY           SKY/WX    TMP DP  RH WIND       PRES   REMARKS
BRADFORD       LGT RAIN  51  45  79 SE7       30.08F
DUBOIS         CLOUDY    50  48  93 E8        30.06F FOG
CLEARFIELD     LGT RAIN  52  48  86 VRB3      30.09S
JOHNSTOWN      LGT RAIN  49  46  90 E8        30.05S
ALTOONA        LGT RAIN  53  48  83 E7        30.09S
STATE COLLEGE  CLOUDY    55  41  58 SE15      30.10F
WILLIAMSPORT   PTSUNNY   63  38  39 E8        30.11F
SELINSGROVE    PTSUNNY   60  41  49 SE16      30.13F
FT INDIANTOWN  NOT AVBL
CAPITAL CITY   CLOUDY    63  45  51 SE17      30.12F
HARRISBURG     CLOUDY    60  45  57 SE14      30.12F
YORK           CLOUDY    59  46  62 E13       30.12F
$$

PAZ038>040-043-044-047-048-054-055-060>062-067>071-242300-
EASTERN PENNSYLVANIA

CITY           SKY/WX    TMP DP  RH WIND       PRES   REMARKS
SCRANTON       FAIR      60  38  43 S13G21    30.16F
MOUNT POCONO   PTSUNNY   55  37  50 SE9       30.18F
ALLENTOWN      FAIR      63  42  46 SE14G21   30.18F
QUAKERTOWN*    MOCLDY    61  45  55 SE14G20   30.18F
READING        CLOUDY    62  45  53 SE10      30.14F
LANCASTER      PTSUNNY   61  45  55 SE14      30.14F
COATESVILLE    MOCLDY    61  45  55 SE13G21   30.16F
POTTSTOWN      FAIR      60  43  53 VRB6      30.18F
BLUE BELL      CLOUDY    59  45  58 SE14      30.20S
DOYLESTOWN     CLOUDY    59  43  55 VRB5      30.18F
WILLOW GROVE   NOT AVBL
NORTH PHILA    PTSUNNY   63  44  50 SE15      30.21F
PHILADELPHIA   CLOUDY    60  44  55 E15       30.18F
$$



USA.gov is the U.S. government's official web portal to all federal, state and local government web resources and services.